Location: Northwest Suburban Astronomers
(42.1100°N, 88.0300°W)
Time: 00:29:21
(UTC-05:00)

Daily predictions for brighter satellites

Satellite Brightness Start Highest point End
(mag) Time Altitude Azimuth Time Altitude Azimuth Time Altitude Azimuth
CZ-2C R/B 4.0 00:01:24 10° NNE 00:04:25 35° NNE 00:04:25 35° NNE
Cosmos 2219 Rocket 4.3 00:06:05 18° W 00:08:11 22° NW 00:12:29 10° N
SL-16 R/B 3.5 00:21:36 37° N 00:21:36 37° N 00:25:03 10° NNE
Mayak 1.7 00:21:18 10° NNE 00:21:40 12° NNE 00:21:40 12° NNE
Cosmos 1943 Rocket 4.1 00:29:11 10° N 00:33:00 21° NE 00:33:00 21° NE
Cosmos 2237 Rocket 4.4 00:54:12 16° WNW 00:55:17 17° NW 00:58:55 10° N
Cosmos 2369 Rocket 3.5 00:51:33 10° NNW 00:55:12 36° N 00:55:12 36° N
CENTAUR R/B 4.3 01:13:12 10° NW 01:17:39 28° W 01:17:39 28° W
USA 215 3.7 01:33:40 56° NNW 01:33:40 56° NNW 01:38:43 10° NW
ADEOS Rocket 4.4 01:36:13 10° NE 01:39:30 25° ENE 01:39:30 25° ENE
Mayak 1.8 01:58:18 10° NNW 01:58:19 10° NNW 01:58:19 10° NNW
Resurs 1-4 Rocket 4.2 02:01:20 10° NE 02:04:34 18° E 02:04:34 18° E
BREEZE-M DEB (TANK) 4.4 02:06:14 55° NE 02:06:14 55° NE 02:15:32 10° ENE
Cosmos 1943 Rocket 3.7 02:12:04 10° NNW 02:14:28 26° NW 02:14:28 26° NW
Cosmos 1656 Rocket 4.4 02:13:32 10° NNW 02:18:10 52° NNE 02:18:10 52° NNE
CZ-2D R/B 3.6 02:21:24 10° NE 02:25:45 28° E 02:25:45 28° E
Cosmos 540 Rocket 4.4 02:31:10 45° NE 02:31:10 45° NE 02:34:47 10° NNE
CZ-3A R/B 3.2 02:33:22 10° NW 02:43:06 84° SW 02:43:25 80° S
SL-08 R/B 4.4 02:51:36 39° NNW 02:51:36 39° NNW 02:54:37 10° NNW
Cosmos 2123 Rocket 3.9 02:44:51 10° N 02:51:08 77° E 02:51:28 75° ESE
Cosmos 1821 Rocket 4.0 02:51:44 69° NW 02:51:44 69° NW 02:57:32 10° N
Lacrosse 5 3.8 02:47:57 10° NNW 02:52:17 27° NNE 02:56:37 10° E
ADEOS 4.5 02:54:05 10° NNE 02:58:59 40° E 02:59:25 39° ESE
Cosmos 1934 Rocket 3.8 03:00:37 78° WNW 03:00:37 78° WNW 03:06:33 10° N
Cosmos 1726 4.2 03:01:54 26° ENE 03:01:54 26° ENE 03:04:05 10° NNE
Cosmos 2098 Rocket 3.9 03:03:38 58° NNW 03:03:38 58° NNW 03:07:32 10° N
SL-16 R/B 2.4 03:04:43 67° SSE 03:05:38 86° ENE 03:11:53 10° NNW
USA 229 DEB 3.7 03:05:20 10° NW 03:12:29 72° WSW 03:14:06 55° S
USA 229 3.7 03:05:27 10° NW 03:12:35 72° WSW 03:14:20 53° S
ERS-1 4.5 03:08:41 10° NNE 03:13:27 75° ENE 03:13:27 75° ENE
Cosmos 1315 Rocket 4.0 03:10:33 10° N 03:13:44 42° NE 03:13:44 42° NE
Cosmos 2221 3.5 03:20:44 39° NNW 03:20:44 39° NNW 03:23:40 10° N
Cosmos 1605 Rocket 3.9 03:19:33 67° SSW 03:20:28 81° W 03:26:55 10° N
ADEOS Rocket 3.5 03:21:31 10° N 03:26:26 38° WNW 03:26:26 38° WNW
Cosmos 1538 Rocket 4.4 03:26:52 50° SE 03:27:49 58° ESE 03:33:05 10° NNE
IRS-1C 4.3 03:23:36 10° N 03:28:49 56° WNW 03:28:49 56° WNW
Cosmos 1666 Rocket 3.6 03:26:44 10° N 03:31:02 77° NE 03:31:02 77° NE
NPP 4.3 03:26:49 10° N 03:31:41 39° WNW 03:31:41 39° WNW
Cosmos 1805 Rocket 4.3 03:28:14 10° NNW 03:31:26 44° NW 03:31:26 44° NW
UNKNOWN OBJECT B 3.4 03:31:42 10° NNE 03:35:43 53° E 03:35:51 53° ESE
BREEZE-M DEB (TANK) 3.0 03:38:34 46° NNW 03:39:13 54° NNE 03:45:37 10° E
Resurs 1-4 Rocket 2.2 03:39:58 10° N 03:45:07 56° WNW 03:45:39 53° W
NOSS 3-1 (C) 4.0 03:37:56 10° NW 03:45:35 85° WSW 03:54:02 10° SSE
ARIANE 5 R/B 2.5 03:41:01 10° N 03:46:13 65° WNW 03:46:56 58° WSW
Cosmos 1153 Rocket 4.4 03:45:12 47° SSW 03:47:06 74° W 03:53:26 10° N
Cosmos 1833 Rocket 4.1 03:45:25 17° SSE 03:48:52 32° ESE 03:53:50 10° NE
CZ-2D R/B 3.4 03:47:38 10° NNE 03:51:38 72° E 03:52:00 67° SE
SL-27 R/B 3.7 03:57:47 32° NNW 03:57:47 32° NNW 04:00:07 10° N
MOS 1 Rocket 3.4 03:52:38 10° N 03:56:51 48° WNW 03:56:55 48° WNW
COSMOS 2406 3.9 03:56:22 34° W 03:57:29 37° WNW 04:02:46 10° N
Cosmos 2100 Rocket 4.0 03:56:35 30° S 04:00:01 88° E 04:06:26 10° N
Sich 1 3.4 03:55:52 10° NNW 03:59:35 45° WNW 03:59:35 45° WNW
Meteor 2-17 Rocket 4.3 03:58:48 36° SSW 04:01:27 79° W 04:07:35 10° N
Cosmos 1802 Rocket 4.2 03:57:19 22° S 04:01:30 72° E 04:07:47 10° NNE
Cosmos 292 Rocket 4.3 04:01:42 40° W 04:02:10 41° WNW 04:06:44 10° N
Cosmos 1300 2.9 04:03:53 53° WNW 04:03:53 53° WNW 04:07:23 10° N
Okean O Rocket 3.9 04:00:45 10° NE 04:04:09 21° E 04:07:30 10° SE
Cosmos 1980 Rocket 4.5 04:00:32 10° N 04:05:08 25° NE 04:09:43 10° ESE
CZ-2D R/B 2.8 04:01:11 10° N 04:06:05 38° WNW 04:07:04 35° W
USA 161 4.0 04:08:29 12° NNE 04:08:29 12° NNE 04:08:46 10° NNE
Tiangong 2 2.1 04:08:15 38° SE 04:08:15 38° SE 04:10:47 10° E
Cosmos 1238 4.5 04:03:59 10° N 04:08:10 84° W 04:08:38 65° S
Shenzhou-11 Module 2.4 04:14:00 55° SE 04:14:00 55° SE 04:16:43 10° E
Cosmos 773 Rocket 4.0 04:12:56 38° SW 04:14:57 71° WNW 04:20:16 10° NNE
Cosmos 2278 3.7 04:09:39 10° NNW 04:15:21 85° ENE 04:21:00 10° SSE
IRS-1D 4.5 04:12:05 10° N 04:16:35 31° WNW 04:17:40 28° W
Cosmos 1455 3.2 04:16:37 16° SSE 04:19:17 43° E 04:22:52 10° NNE
Cosmos 1697 Rocket 3.6 04:14:23 10° NNW 04:19:56 52° ENE 04:25:26 10° SE
Meteor 2-2 Rocket 4.4 04:17:22 30° SSW 04:20:26 65° WNW 04:26:27 10° N
Cosmos 2173 Rocket 4.0 04:17:42 25° SSW 04:21:32 70° W 04:27:55 10° N
MOZ.5/SAFIR/RUBIN 5/SL-8 4.3 04:23:01 35° WSW 04:23:31 36° W 04:27:52 10° NNW
Cosmos 1470 Rocket 3.4 04:19:33 10° NNW 04:23:51 66° W 04:26:15 25° S
MOS 1-B 4.4 04:23:46 10° NNE 04:29:37 79° ESE 04:34:57 12° S
COSMOS 2487 2.5 04:28:17 34° S 04:29:41 77° ESE 04:33:15 10° NNE
ADEOS II 2.3 04:25:00 10° NNE 04:30:15 69° ESE 04:35:23 10° S
Cosmos 192 4.3 04:29:15 22° SSW 04:32:27 84° ESE 04:37:27 10° NNE
Cosmos 1515 Rocket 3.7 04:30:44 31° SW 04:32:36 56° W 04:36:59 10° N
Cosmos 1633 Rocket 4.1 04:29:21 10° NNW 04:32:57 26° W 04:32:57 26° W
Lacrosse 5 1.7 04:30:37 10° NW 04:35:42 74° SW 04:40:45 10° SE
Cosmos 1726 4.1 04:36:31 16° WNW 04:36:31 16° WNW 04:38:29 10° NNW
Cosmos 2082 Rocket 2.2 04:35:51 19° SSW 04:40:00 88° ESE 04:45:41 10° NNE
Cosmos 1459 Rocket 4.2 04:37:03 22° SW 04:40:44 48° WNW 04:46:35 10° N
Cosmos 2228 Rocket 3.7 04:39:48 27° WSW 04:41:27 38° WNW 04:45:36 10° N
Cosmos 2084 3.9 04:40:10 18° SSW 04:42:52 50° ESE 04:46:39 10° NE
Cosmos 1869 Rocket 4.5 04:41:34 10° N 04:45:57 52° E 04:50:17 10° SSE
OAO 2 Rocket 4.5 04:46:15 19° SSW 04:48:41 28° SSE 04:52:55 10° ESE
SL-16 R/B 4.1 04:49:48 15° W 04:49:59 15° W 04:53:16 10° WNW
Lacrosse 4 Rocket 4.3 04:50:05 10° SE 04:52:22 14° ESE 04:54:40 10° ENE
CZ-4B R/B 3.6 04:53:10 10° NNE 04:58:37 66° ESE 05:03:56 10° S
Timation 2 Rocket 4.4 04:55:26 10° S 05:01:17 60° ESE 05:07:20 10° NNE
ATLAS 2AS CENTAUR R/B 3.8 04:54:14 10° NNW 05:02:10 57° NE 05:09:30 10° SE
Cosmos 1892 3.4 04:59:05 10° NNW 05:02:35 34° W 05:06:05 10° SSW
Cosmos 1869 3.6 04:59:12 10° S 05:03:08 70° E 05:07:07 10° NNE
PSLV R/B 3.5 04:58:47 10° N 05:03:08 79° WNW 05:07:25 10° SSW
Cosmos 1656 3.9 04:57:42 10° NW 05:03:13 50° WSW 05:08:39 10° S
Meteor 2-3 Rocket 4.0 04:58:49 10° NNW 05:04:13 47° W 05:09:39 10° SSW
Landsat 4 3.8 05:01:07 10° SSE 05:04:51 77° ENE 05:08:37 10° N
PSLV R/B 4.0 05:01:03 10° N 05:05:07 58° WNW 05:09:10 10° SSW
Cosmos 1408 3.0 05:02:33 10° N 05:06:09 64° E 05:09:43 10° SSE
Meteor 1-31 Rocket 4.1 05:03:47 10° NNE 05:07:33 42° E 05:11:18 10° S
NOSS 3-1 (A) 4.5 05:01:17 10° NW 05:08:22 39° WSW 05:16:01 10° S
Cosmos 1825 2.5 05:06:22 10° N 05:10:11 69° E 05:13:58 10° SSE
Cosmos 1371 Rocket 4.1 05:04:58 10° NNW 05:10:14 84° ENE 05:15:31 10° SSE
Cosmos 2369 4.3 05:05:36 10° NW 05:10:36 33° WSW 05:15:35 10° SSW
Cosmos 2322 Rocket 4.3 05:10:41 10° N 05:15:44 32° NE 05:20:41 10° ESE
Cosmos 2233 Rocket 3.9 05:11:56 10° S 05:18:03 80° W 05:24:13 10° N
PAYLOAD B 4.3 05:13:59 10° N 05:19:35 73° WNW 05:25:07 10° SSW
Cosmos 1151 Rocket 4.4 05:18:16 12° WSW 05:21:00 21° WNW 05:24:18 10° NNW
Hubble Space Telescope 3.0 05:21:06 10° SSW 05:21:43 10° S 05:22:21 10° S
Cosmos 2346 Rocket 4.5 05:18:57 10° NNW 05:25:13 71° W 05:31:25 10° S
Cosmos 1624 Rocket 4.0 05:20:35 10° NNW 05:25:52 86° WSW 05:31:04 10° SSE
Cosmos 1900 4.4 05:21:17 10° SW 05:26:19 75° WNW 05:31:28 10° NNE
SL-16 R/B 3.9 05:22:58 10° N 05:28:17 39° ENE 05:33:33 10° SE
Meteor 2-12 Rocket 4.5 05:24:04 10° SSW 05:30:03 64° W 05:36:06 10° N
USA 234 4.3 05:24:11 10° ENE 05:30:20 41° SE 05:36:26 10° SSW
Cosmos 1833 Rocket 3.4 05:27:29 10° SW 05:32:41 37° WNW 05:37:56 10° N
Cosmos 1680 Rocket 4.5 05:32:00 10° WSW 05:36:41 31° WNW 05:41:25 10° N
Cosmos 1707 Rocket 3.7 05:32:42 10° SSW 05:37:01 54° W 05:41:20 10° N
CZ-4B R/B 3.7 05:33:20 10° NNE 05:37:08 89° WNW 05:40:48 10° SSW
ATLAS 5 CENTAUR R/B 3.7 05:34:32 10° S 05:38:28 29° ESE 05:42:41 10° NE
CZ-4B R/B 4.1 05:35:12 10° N 05:39:09 31° WNW 05:43:07 10° SW
Cosmos 1933 4.1 05:35:52 10° S 05:39:48 58° E 05:43:45 10° NNE
Okean O Rocket 2.3 05:36:34 10° N 05:40:36 35° WNW 05:44:35 10° SW
